Theta_e
284 285 285 285 285 286 286 286 286 286 284 284 284 284 284 284 284 284 283 283 283 283 283 283 283 283 282 282 281 280 280 280 280 279 279 279 278 278 277 277 277 277 276 276 276 276 276 276 276 276 276 276 276 276 276 275 275 275 275 275 275 275 275 274 273 273 274 275 274 274 274 274 273 274 273 273 274 274 276 275 275 274 275 275 275
283 284 284 285 284 285 285 284 284 283 284 284 284 284 283 283 283 282 283 283 283 283 283 283 283 282 282 281 281 280 280 280 279 279 279 279 278 278 277 277 277 276 276 276 276 276 276 276 275 275 275 275 275 275 275 275 274 274 274 274 274 274 275 274 273 272 272 272 272 273 272 273 271 273 272 273 273 274 274 274 275 275 275 275 275
283 284 284 284 284 284 284 285 284 284 284 285 285 285 285 284 283 283 283 282 282 283 283 282 282 282 282 281 281 280 280 280 279 279 279 279 278 277 277 277 277 276 276 276 276 276 275 275 275 274 275 274 274 274 274 274 274 273 273 273 273 273 273 273 272 270 270 270 271 271 271 272 272 272 273 273 274 274 273 274 274 276 276 275 275
284 284 284 284 285 284 284 285 284 284 284 285 285 285 285 285 284 283 283 283 282 282 283 282 282 282 281 281 280 280 280 280 279 279 279 279 278 277 277 277 277 277 276 276 276 275 275 275 274 274 274 273 273 273 273 273 273 273 272 272 272 272 272 272 272 270 270 268 270 270 272 271 272 273 273 274 273 273 274 274 275 275 275 276 275
284 284 284 284 284 284 284 284 284 284 285 285 285 286 285 285 284 283 283 282 282 282 282 282 282 281 281 281 280 280 280 280 279 279 279 279 278 278 277 277 277 277 277 277 277 276 275 275 275 274 273 273 272 272 271 271 271 271 271 271 271 271 271 271 270 270 269 268 269 271 272 272 272 273 273 272 273 273 274 274 274 274 275 275 276
285 285 284 283 284 284 284 284 284 285 285 285 285 286 285 285 284 283 283 282 282 282 282 282 282 281 281 281 281 280 280 280 279 279 279 278 278 278 277 277 277 277 277 276 276 276 275 275 274 274 273 273 272 271 271 270 270 270 270 270 270 270 270 270 270 270 269 269 269 269 271 271 271 272 273 273 273 273 273 274 274 274 274 274 275
284 284 285 285 285 284 284 284 285 285 285 285 285 285 285 285 284 283 283 283 282 282 282 282 282 282 282 282 281 280 280 280 279 279 278 278 278 277 277 277 277 277 276 276 276 275 275 275 274 273 273 273 272 271 270 270 270 269 269 269 270 270 270 270 270 269 269 269 269 270 270 272 272 271 273 274 274 273 272 273 273 275 275 274 274
284 284 284 284 284 285 285 285 285 285 285 285 285 284 284 284 284 284 283 282 282 282 282 282 282 282 281 281 281 281 280 279 279 279 278 278 278 277 277 277 276 276 276 275 275 275 275 274 274 273 273 273 272 271 270 270 270 269 269 269 270 270 269 269 270 269 269 269 268 269 271 271 272 273 274 274 273 273 274 273 272 272 273 275 275
286 285 284 283 283 284 285 285 285 285 285 284 284 284 284 284 284 283 282 282 283 282 282 282 281 281 281 281 280 280 280 279 279 279 278 278 278 277 277 276 276 275 275 274 274 274 274 274 274 273 273 274 275 274 273 273 270 268 269 269 269 269 269 269 269 269 268 268 269 271 271 272 273 273 273 273 272 272 274 274 272 273 274 273 274
285 285 286 286 286 285 285 284 285 285 284 284 284 284 284 284 283 283 282 282 282 282 281 281 281 281 280 280 280 280 280 280 281 282 282 278 278 277 277 276 276 275 274 273 273 273 273 273 273 275 276 276 276 276 276 276 275 271 270 269 269 268 268 268 268 268 269 268 269 271 271 269 272 274 273 274 274 274 273 274 272 273 273 273 274
285 285 285 285 285 285 284 284 284 284 284 285 285 284 284 283 283 282 281 281 281 280 280 280 280 281 280 280 279 279 279 280 283 284 284 284 279 277 276 276 275 275 274 273 272 272 272 272 272 275 276 276 275 277 277 277 277 276 275 274 273 270 269 269 269 270 269 270 271 272 272 272 273 274 274 274 274 274 274 274 273 273 272 271 270
284 284 285 285 285 284 284 283 283 283 283 283 284 284 284 283 282 281 281 280 280 280 280 280 280 280 280 280 279 279 279 282 284 285 285 285 282 278 277 276 275 275 274 273 273 272 272 271 272 274 274 274 274 275 277 278 278 277 277 277 277 277 276 272 271 271 271 271 272 273 273 273 274 274 273 273 274 274 274 274 273 273 272 272 272
284 284 284 284 284 284 283 283 282 282 282 282 282 282 282 282 281 281 280 281 280 279 280 280 279 280 280 279 279 279 279 283 284 285 285 285 284 280 277 276 275 274 274 273 273 272 272 271 271 272 273 276 275 275 275 276 278 278 278 278 278 279 279 279 278 275 275 274 273 273 274 274 273 273 274 274 276 273 273 273 274 274 274 272 272
284 284 284 284 284 283 283 282 281 281 281 281 280 280 280 280 281 281 280 279 279 279 279 279 279 279 279 279 279 279 279 282 284 285 285 286 285 282 276 276 275 274 273 273 273 272 271 271 271 271 273 274 274 274 275 275 276 276 276 277 277 278 280 280 280 280 279 276 275 273 275 274 273 274 276 276 274 273 273 273 274 272 271 271 271
284 284 284 284 283 283 282 281 281 280 280 279 278 278 279 279 280 280 279 279 279 279 279 279 279 279 279 279 279 279 279 282 284 285 286 286 286 283 276 275 274 274 273 273 273 272 272 272 272 272 273 274 274 274 275 275 275 275 275 275 274 274 275 275 276 276 276 275 274 274 274 275 275 276 277 277 276 276 276 274 272 271 270 270 269
284 284 284 283 283 283 282 281 281 281 280 279 277 278 278 278 279 279 279 279 279 279 279 279 279 279 279 279 278 278 278 283 284 285 286 286 286 280 276 275 274 273 272 273 272 272 272 272 272 273 273 274 276 278 277 275 273 271 270 270 270 271 272 275 277 277 276 275 275 275 275 276 278 278 278 278 277 277 274 272 270 267 265 264 264
283 284 283 283 283 282 282 281 280 280 280 279 278 278 279 278 278 277 277 278 279 278 278 279 279 279 278 278 278 278 277 281 284 285 285 286 285 277 275 274 273 272 272 272 272 273 273 273 273 273 273 273 277 280 279 277 271 270 269 269 269 270 271 275 278 279 279 279 279 280 280 280 279 279 279 279 277 275 269 266 265 263 262 262 263
282 283 283 283 283 282 282 281 280 280 279 279 279 279 278 278 278 277 277 277 277 277 278 278 278 278 277 277 277 277 276 279 284 285 286 286 283 275 274 273 272 272 272 272 273 273 273 275 275 273 273 273 279 280 280 276 271 270 269 269 269 270 272 274 275 276 279 279 279 278 277 277 277 277 275 276 276 274 265 264 264 263 262 261 261
281 282 283 284 283 282 282 281 281 280 279 279 278 277 277 277 277 276 276 277 277 277 276 277 276 277 277 277 279 278 276 278 283 284 285 286 282 274 274 273 272 271 271 271 273 273 273 275 276 275 274 275 280 281 280 276 271 270 270 270 270 271 272 273 273 272 272 270 271 272 273 273 271 270 270 272 273 272 269 267 264 262 261 261 262
281 282 283 284 283 282 282 281 281 280 280 279 278 277 277 275 275 275 275 276 276 276 276 276 276 276 276 276 276 277 276 276 281 285 285 286 283 275 274 273 271 271 272 272 272 272 273 274 276 278 278 278 280 281 281 279 272 272 273 272 271 271 273 274 273 271 270 270 271 272 270 271 270 269 268 267 268 268 268 268 267 265 262 262 262
279 281 283 282 281 281 281 281 280 280 280 279 279 277 276 276 274 273 273 273 272 272 273 273 274 273 274 275 275 276 275 275 279 284 285 286 284 277 273 273 273 273 272 272 272 272 272 274 274 278 279 279 280 281 281 281 278 275 275 273 273 274 275 271 273 275 271 270 269 268 268 267 266 266 266 266 266 267 267 269 268 268 266 263 263
277 279 279 278 278 278 279 280 281 280 279 278 277 277 276 275 275 273 272 271 271 271 270 271 271 270 270 271 273 274 275 277 276 282 285 286 285 280 274 274 275 273 272 272 272 272 272 273 273 277 280 279 280 280 281 281 281 276 275 277 278 278 275 272 269 268 267 266 265 264 263 262 262 261 262 264 265 266 267 267 268 268 269 268 266
276 277 276 275 275 275 275 277 279 280 279 278 278 277 276 274 274 273 272 271 271 271 270 269 269 269 268 269 270 271 272 275 279 279 284 285 285 281 279 277 278 275 273 272 272 272 273 273 274 278 280 279 280 280 281 281 281 277 279 279 278 278 274 268 267 265 264 263 263 262 261 260 259 260 261 263 265 266 267 268 268 268 268 269 269
274 272 271 271 271 272 273 275 277 279 278 278 277 277 276 274 273 273 273 272 271 271 271 270 269 269 268 269 270 271 272 273 277 280 282 285 286 283 281 280 280 275 274 273 273 272 272 273 274 279 280 280 280 281 281 281 279 280 279 279 279 275 267 266 264 263 262 261 260 259 258 259 260 261 262 264 266 267 267 267 267 268 268 268 268
268 268 268 268 269 271 272 273 275 277 278 278 277 276 276 274 273 273 272 272 272 272 272 271 270 270 270 269 269 270 271 273 274 278 282 283 286 284 282 281 281 279 275 274 273 273 274 276 277 279 280 280 281 281 281 280 280 279 279 278 274 266 265 263 262 260 259 259 258 257 258 260 262 264 265 266 266 266 266 266 266 266 266 266 266
265 265 266 267 268 270 270 272 273 275 278 278 277 277 277 275 274 274 273 272 272 272 272 271 271 271 271 271 270 270 271 272 273 275 279 282 284 284 282 281 281 279 276 274 275 276 277 277 278 279 280 280 279 277 275 276 278 278 277 273 266 264 262 261 259 259 258 258 258 258 259 262 263 264 265 265 264 262 263 262 261 262 262 263 262
264 264 264 266 267 268 269 270 272 274 276 277 277 277 276 275 274 274 273 272 272 272 272 272 271 271 271 271 271 270 270 271 272 273 276 278 281 283 281 280 281 279 275 274 276 275 276 276 276 278 279 280 277 276 275 276 273 271 266 265 263 261 261 259 260 259 259 258 259 260 261 262 263 263 261 261 260 261 263 262 261 261 262 262 262
262 262 263 264 265 266 267 269 271 273 274 276 276 276 276 275 275 274 273 273 272 272 272 272 272 271 271 271 270 269 269 270 271 272 274 277 279 281 280 278 277 275 273 274 274 275 275 277 278 277 276 273 270 268 267 265 264 264 263 262 262 262 262 265 264 262 263 263 262 262 259 258 257 258 259 259 260 260 262 261 261 261 262 262 261
262 261 262 262 263 266 267 269 271 272 273 275 276 277 277 276 275 275 276 276 275 274 274 273 273 273 273 272 269 268 268 269 271 275 275 278 279 280 278 277 277 274 275 276 274 274 274 274 271 268 267 265 264 264 262 262 261 260 260 260 260 260 260 260 260 260 260 257 257 257 257 256 256 258 258 257 258 259 261 260 261 261 262 262 261
260 260 261 262 263 265 267 269 271 272 273 274 275 276 277 280 278 276 276 278 279 279 279 275 275 274 274 273 272 270 269 270 275 277 278 280 282 283 281 280 279 275 277 279 275 272 271 269 267 267 266 265 264 263 262 261 259 258 258 262 260 259 259 259 258 257 258 257 257 256 256 257 257 256 256 257 258 258 261 263 261 262 261 261 260
259 260 261 261 263 264 266 267 269 271 272 274 274 274 275 276 280 281 280 279 279 280 280 280 280 279 275 273 274 277 276 275 276 278 279 280 281 283 282 281 279 278 279 275 272 270 269 267 267 266 265 265 264 263 262 260 259 259 259 260 259 260 260 258 258 258 258 257 257 256 257 256 256 257 256 257 258 259 259 260 261 261 260 261 261
258 259 259 261 262 264 265 267 268 270 271 273 274 274 274 274 275 279 281 281 280 280 280 281 281 280 279 277 273 272 276 277 277 278 279 280 281 282 282 281 280 280 279 277 270 268 268 267 266 265 265 264 264 262 261 260 260 259 259 258 258 258 258 257 259 257 257 257 255 256 256 256 256 257 257 258 259 259 259 259 259 260 261 261 262
258 258 260 261 263 264 266 267 267 268 270 272 273 274 274 273 273 273 275 280 281 280 280 280 281 280 280 280 279 276 276 277 278 278 279 280 281 282 282 281 280 280 279 272 269 268 267 267 266 265 264 264 263 261 260 260 259 258 258 258 257 258 258 259 261 258 257 256 257 257 258 257 257 257 258 258 259 258 259 259 260 260 261 261 262
259 260 261 262 263 263 263 263 263 264 265 267 270 272 274 274 274 274 273 273 274 278 280 280 280 281 281 280 280 278 278 278 278 278 279 280 281 282 282 279 281 281 276 270 268 267 266 266 265 264 264 263 262 260 259 259 258 257 258 258 258 259 259 260 258 257 257 257 256 256 257 255 256 256 256 258 259 259 259 259 259 260 260 262 262
261 262 263 262 261 261 261 262 262 263 265 267 271 273 274 274 274 273 273 272 272 271 273 275 279 280 279 279 280 280 279 278 279 279 279 280 281 282 282 277 276 275 273 269 268 267 266 265 264 263 263 261 260 259 258 258 257 257 257 257 257 257 257 257 256 257 256 255 254 254 255 255 255 257 258 258 258 258 258 259 259 261 261 262 263
258 258 259 260 260 260 261 262 264 267 269 270 272 274 274 274 273 273 273 273 272 272 272 273 274 278 280 280 280 280 279 279 279 279 279 280 281 282 276 274 274 273 270 268 267 266 265 264 263 262 261 260 259 258 258 257 257 257 257 256 256 256 256 256 256 255 255 254 255 257 258 258 257 256 256 257 257 258 259 259 260 261 263 263 264
258 258 259 260 260 261 261 262 263 263 266 268 270 272 273 273 273 272 272 272 271 272 272 272 273 273 277 277 278 280 280 279 279 279 280 280 281 280 276 274 274 270 267 266 265 264 264 263 262 261 260 259 258 258 257 256 256 256 257 256 256 256 255 254 254 255 255 255 256 255 254 253 254 254 256 256 258 259 260 260 261 262 263 264 265
258 259 259 259 260 260 261 261 263 266 266 266 267 269 270 272 272 271 271 271 271 271 271 271 273 271 272 274 278 277 277 279 279 279 279 280 279 277 275 274 271 267 267 266 264 264 263 262 261 260 259 258 257 257 256 255 255 255 255 255 255 254 258 258 260 258 257 254 253 252 253 253 254 254 256 257 258 259 260 261 261 262 263 264 264
259 260 261 262 263 262 262 263 263 263 263 265 265 266 268 270 271 270 270 270 270 271 270 271 271 271 272 274 275 276 276 275 274 274 275 276 277 277 275 272 268 267 265 264 262 262 261 260 259 258 257 257 256 256 255 254 254 254 254 253 253 254 256 254 253 252 251 251 251 251 252 253 254 254 256 257 258 259 260 261 262 263 263 263 263
259 259 260 261 261 261 261 262 262 263 264 264 265 266 267 269 270 270 270 270 270 270 270 270 271 271 273 274 273 274 273 273 274 274 274 275 275 273 271 268 265 263 262 261 261 261 259 258 257 257 256 256 255 254 254 254 253 253 253 252 252 252 252 252 251 251 251 251 251 251 252 253 254 255 256 257 258 260 261 262 263 264 264 263 262
257 258 260 261 261 261 262 262 263 263 264 266 267 268 268 269 270 270 270 269 270 270 270 270 271 272 273 274 276 276 273 273 273 274 274 271 267 266 266 265 263 262 262 261 261 260 258 257 256 255 255 254 254 253 253 253 252 252 252 252 252 252 252 251 251 251 251 251 251 251 252 253 254 255 256 258 262 263 263 263 263 263 263 262 262
258 259 259 260 260 261 261 261 262 263 264 266 267 268 269 269 270 269 269 269 269 270 270 270 271 272 274 276 277 277 274 273 271 268 266 265 266 265 265 264 263 262 261 260 259 258 256 255 255 254 254 253 253 252 252 252 252 251 251 251 251 251 251 251 251 251 251 251 251 252 252 254 256 258 260 262 261 261 261 262 263 263 262 261 261
258 258 258 259 259 259 259 260 261 262 263 265 267 268 269 269 269 269 269 269 269 269 270 270 270 271 272 276 276 277 271 267 265 266 265 265 264 263 262 261 261 261 260 260 260 258 256 255 254 254 253 253 252 252 252 252 252 251 251 251 251 251 251 251 251 251 251 251 252 253 254 255 257 257 258 259 260 261 261 262 263 262 261 261 261
258 259 259 259 260 260 261 261 262 262 264 265 267 269 269 269 269 269 269 269 269 269 269 270 270 270 272 274 275 270 264 265 264 263 262 261 261 261 260 259 259 258 257 257 256 256 256 255 254 253 252 252 252 252 252 252 252 251 251 251 250 251 250 251 251 251 251 250 252 253 254 256 257 257 258 260 260 261 262 262 262 261 261 261 261
259 259 259 260 260 260 261 262 263 264 265 266 267 268 268 268 268 268 268 268 268 268 269 269 270 268 265 264 263 263 263 261 261 260 260 260 259 259 259 258 257 256 255 254 255 255 254 253 252 251 251 250 250 250 250 250 251 251 251 250 250 251 251 251 251 251 250 250 252 253 255 255 256 257 258 260 261 261 262 262 261 262 262 261 261
261 261 261 261 261 262 262 263 264 265 266 267 267 267 267 267 268 268 268 268 267 268 267 265 263 263 263 263 261 260 260 260 260 259 258 258 257 257 256 255 254 253 253 253 252 252 252 252 252 251 251 250 250 249 249 249 249 249 249 250 250 251 251 251 250 250 250 250 251 253 255 256 257 258 260 260 261 262 262 262 261 262 262 262 261
262 263 263 263 263 263 263 264 265 265 266 266 266 266 266 266 266 266 265 266 265 264 262 263 262 261 261 261 260 260 259 259 259 258 258 257 255 254 253 253 252 252 251 251 251 251 251 251 251 251 251 250 250 249 249 248 248 248 249 249 249 250 250 250 250 250 250 251 253 254 255 256 257 258 260 261 262 262 262 261 261 261 261 261 260
261 262 262 263 263 263 263 264 264 263 264 264 264 264 263 264 264 264 263 262 262 262 261 261 260 260 259 259 259 259 259 258 258 258 256 255 253 253 252 252 251 250 250 250 249 250 250 250 250 250 250 249 249 249 248 248 247 248 248 249 249 249 250 251 250 250 251 252 254 255 256 257 258 259 261 262 263 262 261 261 262 262 261 261 261
260 260 261 261 261 261 262 262 262 262 261 262 262 262 262 262 262 261 261 261 260 260 260 259 259 259 259 258 258 258 258 257 257 256 255 253 252 252 252 251 250 250 250 250 249 249 249 249 248 248 248 249 248 248 248 248 248 248 248 248 250 254 254 254 253 252 254 255 256 257 258 259 260 261 262 263 263 261 261 261 262 262 261 261 260
259 260 260 260 260 260 261 261 260 260 260 261 260 260 261 260 260 260 260 260 259 259 259 259 258 258 258 257 257 257 257 256 255 253 253 252 252 252 251 251 250 250 250 249 248 248 248 247 247 247 247 247 247 247 247 247 248 248 247 248 252 255 256 257 257 257 258 258 258 259 261 262 263 264 264 262 260 260 260 261 262 262 261 260 259
259 259 259 259 259 260 260 260 260 260 260 260 260 260 259 259 259 259 259 259 258 258 258 258 258 257 257 258 257 256 256 256 254 253 252 252 252 252 251 251 250 250 249 249 248 247 247 247 247 247 247 247 247 247 247 247 247 247 249 252 254 255 257 258 258 260 261 262 262 263 264 264 264 264 263 261 260 260 261 262 262 261 260 259 259
Wind_Speed
4 6 7 10 9 9 9 8 9 6 6 7 9 8 7 9 10 10 7 11 11 12 13 14 14 14 14 14 15 14 14 14 12 12 12 12 11 11 11 12 13 10 9 9 8 9 10 10 9 8 8 9 8 7 7 7 6 6 5 5 6 5 6 6 7 8 4 2 3 2 3 5 5 3 6 4 6 7 8 8 9 9 8 7 6
5 5 5 5 7 8 8 6 5 5 7 7 9 8 8 9 9 7 12 10 11 13 13 12 12 14 14 14 14 14 14 14 14 13 14 14 13 10 12 13 13 12 11 11 10 9 9 10 9 8 9 9 8 8 8 8 7 7 6 7 7 7 6 7 6 6 9 1 2 2 2 2 5 3 4 5 6 6 8 8 7 7 7 7 7
5 5 7 7 9 8 8 9 7 7 9 10 11 12 12 12 10 13 13 11 11 12 13 12 13 13 13 13 14 14 15 15 14 14 15 16 16 14 13 15 15 14 14 13 12 11 11 10 10 9 8 9 8 8 7 8 7 8 8 6 7 6 6 6 6 7 7 7 1 1 2 3 3 4 4 5 7 7 9 9 8 7 6 6 6
7 7 8 9 9 7 9 9 8 9 10 11 12 13 12 11 10 12 12 10 12 12 12 14 13 14 15 14 15 15 15 15 15 15 16 16 16 16 14 14 14 14 15 14 14 13 14 12 11 12 11 11 9 9 8 7 8 7 7 6 6 7 6 6 5 6 4 5 3 2 2 1 4 5 7 7 8 8 9 9 7 7 6 6 6
7 7 8 10 9 9 10 8 9 11 12 12 14 14 12 12 10 12 10 11 11 11 11 12 14 15 16 17 17 16 16 15 15 15 14 14 15 15 15 15 15 15 15 15 14 16 15 15 14 13 12 12 9 9 9 10 8 7 7 7 7 6 6 6 6 5 4 6 4 3 3 4 6 7 7 7 7 8 7 7 6 6 6 5 5
10 9 7 8 10 10 10 8 11 13 14 15 16 14 12 11 11 10 11 13 11 12 14 13 14 15 16 16 16 16 15 15 16 17 16 14 14 14 14 15 15 15 14 14 14 14 15 14 13 14 14 14 13 11 10 11 8 8 8 7 7 7 7 6 6 6 6 5 5 4 4 6 5 6 7 7 7 7 6 5 4 3 3 4 4
10 10 11 10 11 9 9 11 12 13 14 15 13 11 12 12 12 13 12 13 14 14 13 14 14 15 16 15 16 16 16 16 15 15 15 15 15 15 15 15 14 13 13 13 13 13 13 13 13 14 15 13 13 13 12 10 9 10 9 9 8 8 7 7 7 6 6 6 5 5 6 7 6 5 6 6 6 6 6 5 5 4 4 5 8
8 9 9 10 10 12 12 11 11 13 12 12 12 12 11 11 13 12 11 14 14 15 15 16 14 12 14 14 14 13 15 15 15 15 16 16 16 16 16 16 15 14 12 12 12 12 12 12 12 13 13 12 12 11 12 12 9 10 8 8 8 8 7 7 7 6 5 5 5 6 6 6 5 6 6 3 2 2 2 7 9 8 6 4 6
9 8 8 7 9 10 11 10 10 11 12 11 11 11 12 12 11 11 12 13 13 14 14 13 13 13 13 14 14 13 14 15 15 16 16 17 16 17 16 16 15 15 14 13 12 12 11 11 11 12 11 13 15 13 13 13 12 11 9 10 9 8 7 7 6 5 5 5 5 6 6 5 4 2 2 2 3 5 6 5 6 6 8 8 5
13 12 11 11 10 8 8 9 10 11 10 11 11 11 11 11 10 11 13 13 11 11 11 12 14 15 15 15 14 13 14 13 14 21 19 17 17 14 13 13 14 14 14 14 12 12 13 11 10 17 18 18 18 18 19 18 16 11 11 11 10 9 9 8 7 6 6 6 6 5 3 2 2 3 4 3 3 4 4 5 7 8 9 8 5
15 14 14 13 12 11 9 8 8 10 11 10 10 9 10 10 10 11 10 10 11 11 11 13 15 14 15 15 15 14 13 12 19 25 26 25 17 15 15 14 13 13 13 15 15 14 12 9 8 15 17 17 15 20 19 20 19 16 17 16 12 11 10 9 8 8 7 7 6 5 4 3 3 3 3 4 3 4 5 6 8 8 8 12 12
14 14 13 14 14 13 12 11 9 9 8 9 10 10 9 8 9 10 9 10 10 9 13 15 13 13 13 14 16 16 15 14 23 25 26 25 20 15 13 13 13 14 13 14 12 12 13 9 9 8 10 13 12 14 17 20 19 18 19 19 18 18 15 11 10 9 9 7 7 5 4 4 3 3 2 2 5 6 7 7 8 9 10 9 9
13 13 13 13 15 14 13 12 11 10 8 8 8 7 7 8 9 8 11 11 9 12 14 12 14 14 14 16 16 15 14 16 23 25 25 26 25 19 12 13 14 14 14 14 14 13 11 9 9 8 9 20 14 12 12 13 18 20 19 20 19 19 18 19 16 10 9 8 7 6 5 4 3 2 2 4 5 7 8 8 9 7 7 8 9
12 12 12 13 13 13 13 12 12 12 10 8 7 7 7 9 9 8 7 6 10 11 11 13 12 13 14 14 13 12 13 15 24 25 25 26 25 21 12 13 13 13 13 14 13 14 10 10 11 10 10 13 11 12 11 12 12 14 14 13 12 16 19 21 20 19 13 7 6 5 4 2 3 4 4 4 6 6 6 6 4 5 6 7 10
14 12 13 14 14 14 13 12 12 11 10 8 7 7 8 8 7 7 7 10 11 12 12 13 12 12 12 11 12 12 11 16 22 24 24 25 25 20 11 11 10 10 11 13 12 8 10 9 10 11 13 12 11 14 13 12 12 11 11 10 8 8 7 7 7 5 5 3 4 3 5 6 6 5 4 4 4 6 4 4 5 6 6 8 10
13 12 13 14 15 15 15 15 14 12 11 10 8 8 7 7 8 6 6 7 7 7 8 9 11 12 12 11 11 12 9 18 22 23 25 24 25 14 12 12 11 11 11 11 8 7 7 10 10 11 11 11 16 22 16 10 10 11 11 7 6 5 5 6 9 8 6 5 5 7 6 6 7 5 5 4 4 2 3 5 5 5 6 7 10
13 13 12 13 14 14 14 14 14 13 11 10 10 9 9 8 7 4 6 7 8 9 10 10 10 11 11 12 12 11 9 16 23 24 25 26 19 11 11 10 9 10 11 13 10 10 10 12 11 10 10 10 18 23 22 18 10 11 10 9 7 6 6 7 13 15 14 14 14 12 10 8 7 8 9 7 3 3 4 5 6 2 4 8 11
14 13 14 13 13 13 13 13 14 13 11 11 11 10 8 6 6 5 7 8 9 10 8 8 8 8 11 12 12 12 10 15 24 25 26 28 19 13 12 11 11 10 10 11 8 7 10 21 15 10 11 12 22 24 24 19 11 11 10 10 10 9 8 7 6 8 13 12 10 8 7 8 8 4 2 4 7 6 1 5 4 1 5 3 9
14 15 15 13 12 12 12 12 12 13 12 11 9 9 9 8 7 4 7 7 9 7 6 8 8 7 9 10 11 13 10 13 24 25 27 28 19 12 13 12 12 11 11 11 9 7 10 15 20 15 13 17 25 25 25 19 11 11 11 10 10 10 9 8 8 6 3 2 0 2 4 1 4 2 2 6 8 8 4 4 1 2 5 5 6
15 15 15 13 11 12 11 12 12 12 13 12 10 9 7 6 6 6 7 7 7 7 7 7 9 8 7 9 10 11 11 10 17 26 26 28 25 14 12 13 14 13 12 12 12 11 9 12 16 22 23 25 25 26 25 24 13 11 10 10 11 11 8 7 6 5 4 4 4 4 5 4 3 2 1 1 3 4 5 4 4 4 5 6 6
16 16 13 13 14 14 12 12 13 13 11 11 10 8 6 7 6 6 8 7 6 7 8 7 7 6 6 7 8 10 10 11 15 25 27 29 28 20 12 14 12 13 13 13 12 13 9 9 7 21 25 25 25 26 26 25 20 12 11 9 8 7 7 7 8 10 4 4 4 3 1 0 0 0 1 2 2 3 3 4 4 5 5 6 7
16 15 14 15 15 15 15 15 13 12 11 9 9 9 7 6 6 7 7 6 7 8 6 7 7 6 4 5 6 8 8 13 11 20 27 29 29 24 14 13 12 12 12 11 8 4 7 8 9 19 26 25 23 25 26 24 25 11 12 15 15 16 9 6 5 5 5 4 3 2 2 1 1 0 1 2 4 4 4 5 5 6 7 7 7
14 13 14 16 17 17 17 18 16 11 11 9 9 10 7 6 7 6 6 7 8 8 7 6 6 6 5 5 5 6 6 9 16 14 23 28 30 27 22 14 20 13 13 13 13 9 7 8 11 23 27 25 24 25 23 25 21 12 20 19 18 18 10 6 6 5 4 3 3 2 2 1 1 2 1 2 3 4 4 4 5 6 7 7 8
11 14 16 17 18 18 17 17 16 13 12 10 9 10 8 7 7 7 7 8 8 8 7 6 6 7 8 7 6 6 6 7 12 17 17 27 28 28 26 22 22 13 11 11 8 8 9 9 14 24 26 25 25 23 22 22 14 19 20 20 19 12 7 6 5 5 4 4 4 4 4 2 2 2 2 2 3 4 5 5 6 7 8 8 8
14 17 18 18 18 16 16 15 16 16 13 10 10 9 9 8 8 7 7 8 8 9 8 7 9 9 8 9 8 7 7 8 8 15 21 23 29 28 27 25 24 22 12 8 6 9 11 20 23 26 24 23 24 23 20 21 21 19 19 19 12 6 6 6 6 5 5 6 6 3 3 2 3 3 2 3 4 5 5 4 4 6 7 9 10
16 19 18 17 16 17 17 18 16 16 14 10 10 10 10 8 9 8 8 9 8 9 8 8 9 9 9 8 8 8 8 8 9 10 13 16 19 26 28 26 27 25 17 12 17 19 20 22 24 24 22 20 16 12 9 11 18 18 17 13 6 6 6 6 5 6 6 5 5 4 3 1 2 2 2 3 3 3 3 4 5 6 6 8 9
17 17 17 16 16 15 15 16 13 15 13 10 9 10 9 8 9 9 9 9 9 9 10 9 9 9 10 10 9 8 9 9 9 9 10 11 11 14 19 19 25 24 15 12 16 14 17 18 15 18 14 20 15 11 11 11 10 9 7 6 6 6 6 6 7 6 5 4 4 2 2 1 0 1 1 1 3 3 3 5 6 7 6 8 9
16 18 18 16 15 16 16 20 19 13 14 11 10 10 9 9 10 11 11 11 11 11 10 10 12 12 11 10 9 10 11 10 11 12 13 12 12 10 12 12 14 12 12 12 12 13 13 15 18 13 11 9 8 7 5 5 6 7 6 5 5 5 6 7 7 4 4 3 2 2 0 0 1 1 1 2 3 4 3 4 6 8 7 7 9
17 18 17 14 13 14 15 13 15 14 14 13 11 11 11 10 11 12 12 10 12 12 11 12 12 11 10 10 12 13 6 12 15 13 13 16 15 11 11 12 11 11 15 20 13 11 11 11 9 8 9 9 8 8 7 7 5 6 8 6 5 5 5 6 7 6 4 3 3 2 1 0 1 1 1 2 3 4 4 5 7 8 8 6 9
15 17 14 14 13 13 11 12 10 12 11 12 12 12 13 18 14 12 12 14 20 19 15 12 11 10 10 10 12 16 17 16 13 21 22 22 24 21 17 19 18 15 22 30 18 13 12 11 11 12 11 10 10 10 9 9 9 7 6 7 6 5 6 5 5 5 4 4 4 3 1 1 1 1 1 3 4 3 5 7 7 6 8 9 10
14 16 16 13 13 16 13 13 11 11 11 11 10 12 12 11 21 26 22 15 16 21 24 23 19 16 13 10 11 19 11 10 21 25 25 25 26 25 23 25 26 28 30 21 15 14 13 12 11 10 10 10 10 10 10 9 6 7 6 6 6 7 6 5 5 6 5 5 3 3 2 2 2 1 3 3 4 5 4 5 6 7 7 9 10
14 14 14 14 17 16 14 15 14 12 12 11 12 12 12 12 10 16 23 25 24 23 25 26 26 23 22 17 9 9 18 20 22 25 27 27 28 27 26 28 28 32 33 28 16 13 14 14 13 12 12 11 11 9 11 13 9 9 8 7 5 5 7 6 5 5 5 5 4 4 2 2 2 3 3 4 6 5 5 5 5 7 8 9 10
16 17 15 15 15 16 15 13 13 13 14 13 12 11 12 11 12 10 9 19 25 25 24 25 26 25 23 22 22 17 17 20 24 25 27 28 29 29 27 29 30 33 32 19 14 14 12 12 12 12 12 12 11 12 12 11 11 13 11 9 6 6 6 6 6 5 5 4 3 2 3 2 2 4 4 5 6 6 6 6 6 7 8 10 10
18 15 14 13 12 12 13 14 14 16 16 17 17 16 14 12 11 11 9 6 10 17 23 25 25 25 24 23 22 22 22 24 26 27 28 29 30 31 28 23 31 35 27 15 12 12 11 11 10 10 10 9 9 9 10 10 11 10 6 4 5 5 6 5 5 4 4 3 2 1 1 1 3 3 4 4 5 6 7 7 7 8 8 8 10
14 16 25 21 15 15 15 15 16 16 17 17 16 14 12 11 10 11 10 11 10 10 10 12 19 24 19 18 22 24 24 25 27 27 29 30 30 31 28 18 20 20 18 13 13 13 14 13 12 11 10 10 10 11 12 10 6 6 6 6 4 5 5 4 4 4 4 4 3 3 3 3 3 5 4 4 5 6 7 8 7 8 9 10 10
15 14 15 17 16 15 15 15 15 15 13 12 12 11 10 10 10 10 10 10 10 9 9 9 8 14 25 23 23 24 25 25 26 28 28 31 31 32 18 16 16 15 13 12 12 11 11 11 11 10 10 9 11 10 12 13 9 9 6 7 6 5 5 4 5 5 4 4 3 3 4 3 3 3 3 5 7 8 8 8 8 8 9 9 8
13 14 13 12 11 12 13 14 13 16 18 17 13 12 11 10 9 8 8 9 9 9 8 6 6 7 13 12 18 23 26 25 26 27 28 29 33 24 15 15 15 12 12 13 12 11 11 9 9 9 10 12 13 11 11 11 7 9 7 6 5 6 5 6 6 5 4 3 4 3 2 3 3 3 3 5 6 7 8 9 9 10 10 12 13
14 13 12 12 12 14 14 16 17 19 13 12 13 13 12 9 8 8 8 9 9 9 8 7 8 9 10 10 15 11 15 22 26 24 24 25 22 16 13 12 12 13 14 12 12 11 10 9 10 11 10 11 12 12 11 11 9 10 9 7 5 6 7 5 6 5 4 2 2 1 2 3 4 4 5 5 7 8 8 9 9 10 10 10 8
13 21 27 28 22 15 12 12 13 14 15 13 13 14 14 11 9 8 8 7 8 8 8 8 8 9 10 8 8 11 14 12 13 13 14 15 15 14 12 11 10 11 11 11 10 10 10 10 9 10 12 13 12 12 13 12 10 10 9 7 5 4 4 5 4 3 2 2 3 3 3 4 4 4 5 6 7 8 9 9 10 10 11 10 9
13 13 15 23 16 17 16 16 14 14 14 14 13 13 15 14 11 9 8 8 9 9 8 9 10 9 9 9 10 11 12 12 12 11 11 13 13 10 10 10 10 11 11 10 9 9 11 10 12 12 13 12 12 12 10 10 10 9 8 8 7 6 5 5 4 5 4 4 4 4 4 4 5 4 5 7 8 8 9 9 9 10 10 9 11
12 13 15 16 17 15 14 15 13 13 12 13 12 12 13 12 10 9 9 9 9 9 9 9 9 9 8 12 21 19 12 11 10 11 9 8 7 9 10 10 12 11 10 11 10 11 12 12 14 13 14 12 12 12 10 10 9 9 9 6 5 6 5 4 4 4 4 4 4 4 4 4 4 4 6 7 9 9 8 9 10 10 8 9 11
11 11 12 12 13 12 13 14 14 15 14 13 12 12 11 10 10 10 10 10 9 9 8 8 8 7 11 23 23 26 14 8 6 5 7 8 8 8 9 9 9 10 10 10 13 12 12 15 14 13 14 13 12 11 9 9 9 10 9 7 6 5 5 4 5 4 4 4 4 4 4 5 5 6 7 8 7 7 9 9 9 8 8 10 10
14 12 12 13 12 12 12 12 12 12 13 13 13 12 12 11 9 9 9 8 8 8 8 7 6 7 9 19 21 26 8 6 7 8 8 8 8 8 9 9 9 9 9 9 8 14 15 11 13 12 14 11 11 12 11 12 9 8 6 6 6 6 5 4 4 4 4 4 4 4 4 4 5 5 6 7 8 8 8 10 9 8 9 10 10
12 12 12 12 12 12 12 11 12 12 12 13 13 9 7 8 8 7 7 7 7 7 7 7 6 8 8 13 15 7 8 8 8 8 9 8 9 9 9 9 10 10 9 9 11 12 15 16 13 10 8 7 6 6 6 6 7 7 7 6 5 5 4 4 5 5 5 5 4 3 4 4 5 6 7 8 8 9 10 9 9 9 10 10 10
12 11 10 10 10 11 11 11 11 11 12 11 10 8 7 7 7 6 6 6 4 5 5 6 6 5 5 8 10 10 8 9 8 9 9 9 9 9 10 11 12 12 11 10 9 12 13 11 13 14 10 7 7 7 7 5 5 5 6 7 7 6 6 6 6 5 5 5 3 3 3 4 5 6 7 8 8 9 9 8 8 10 11 10 10
10 9 8 9 9 10 10 10 10 10 10 9 8 6 5 5 5 5 4 4 4 5 5 6 7 7 7 8 8 9 9 10 10 9 9 10 10 10 11 13 14 14 13 12 10 10 11 14 14 13 9 6 7 6 5 4 4 4 4 4 5 5 4 3 3 4 5 4 4 3 4 5 7 7 10 9 8 9 9 8 8 9 10 11 11
10 8 7 7 9 10 10 9 9 9 7 5 3 3 3 3 4 4 3 5 6 6 7 7 7 8 8 8 9 9 9 10 10 10 10 11 10 10 8 9 13 13 13 12 12 12 12 10 10 10 10 6 6 6 5 4 4 4 3 3 3 4 4 4 4 4 4 4 4 4 5 6 7 8 10 10 9 9 7 8 9 11 11 10 10
7 7 6 5 4 3 2 2 3 3 4 4 5 4 4 5 5 5 6 7 8 7 8 8 8 8 9 9 8 9 9 10 10 10 10 10 7 9 13 16 16 14 12 12 9 9 9 8 8 8 8 6 7 5 4 4 3 3 3 4 4 5 6 6 5 5 4 4 5 6 7 7 8 9 9 10 9 6 8 9 9 9 10 10 10
8 7 7 7 6 6 6 6 5 5 5 6 6 7 6 7 7 7 7 8 7 7 7 8 8 8 9 9 8 9 9 10 11 10 9 8 7 12 13 13 14 9 8 7 4 4 6 6 6 6 5 4 4 4 4 3 3 4 4 5 7 11 11 10 7 5 8 7 7 7 8 8 9 10 10 9 7 6 8 9 9 10 9 9 10
8 8 8 8 8 7 7 6 6 6 6 6 7 7 7 7 7 7 7 8 8 8 8 8 8 8 9 9 9 9 9 11 10 8 9 8 8 7 9 11 12 10 10 9 4 3 5 5 5 5 4 4 4 3 2 3 4 4 4 5 9 10 9 10 11 12 9 6 8 7 8 8 9 10 9 6 6 8 9 9 10 9 8 9 11
8 8 8 8 8 8 8 7 7 7 7 7 7 7 7 8 7 7 7 8 8 8 8 8 8 8 8 8 8 9 9 9 7 8 9 10 12 10 10 9 10 10 6 5 4 3 4 4 3 3 3 2 2 2 3 3 4 4 6 9 10 10 10 10 8 10 14 11 8 8 8 9 10 10 6 5 6 7 10 11 10 9 8 8 10
Wind_Direction
274 274 303 290 292 261 243 231 231 223 217 214 216 216 208 202 200 199 167 194 181 187 189 189 189 190 187 190 187 186 185 183 183 179 183 184 183 182 174 178 180 181 171 176 176 172 175 177 179 175 165 169 172 169 171 167 161 163 161 167 167 164 157 157 185 249 298 75 17 356 5 6 325 338 313 319 316 306 302 299 298 296 293 289 291
241 257 259 259 263 270 284 286 267 234 224 216 219 214 210 209 203 182 200 196 185 192 191 189 190 189 190 192 190 188 187 186 183 182 185 184 184 181 181 180 182 179 175 182 178 178 175 177 180 172 176 173 168 174 170 166 166 161 175 173 175 173 175 160 192 191 258 5 3 5 355 337 279 306 291 305 294 296 291 285 271 263 269 283 295
259 256 258 252 247 243 244 244 237 234 229 228 225 219 215 209 194 199 202 193 191 190 190 188 190 190 193 192 190 190 190 190 187 185 189 186 184 186 184 183 183 180 183 184 179 176 176 182 181 172 169 172 178 174 166 170 166 170 175 174 172 173 173 174 161 200 235 277 207 235 223 244 251 281 280 270 266 262 264 263 266 268 267 274 279
276 271 263 258 256 249 242 242 239 238 236 235 233 227 220 215 204 208 205 192 194 197 189 188 186 190 193 192 192 193 192 192 189 192 190 188 188 187 183 187 188 187 185 182 179 180 182 179 183 175 174 175 175 171 174 167 171 172 172 178 171 170 173 164 182 165 199 223 266 171 206 236 253 259 252 251 249 244 235 248 251 260 265 267 271
297 274 270 272 265 256 255 244 241 239 237 237 236 233 225 221 210 212 201 200 198 190 196 192 192 191 193 193 194 195 194 190 190 192 194 192 190 186 186 188 190 190 189 186 182 181 182 187 178 174 174 175 174 176 174 174 172 168 175 172 171 166 161 167 166 168 175 217 249 249 251 249 246 245 241 240 245 242 245 249 255 258 261 252 253
311 301 281 265 268 263 261 251 243 241 238 239 238 234 227 222 215 211 203 206 197 198 197 195 196 197 197 196 194 195 191 191 193 192 191 189 190 191 189 190 192 190 189 188 185 184 184 183 177 174 177 180 181 176 170 172 166 172 172 174 167 165 162 159 163 178 187 208 223 269 249 247 245 229 230 230 249 268 268 262 259 260 273 289 261
306 301 295 289 284 270 252 245 241 241 239 239 239 235 228 221 213 213 203 205 201 200 200 199 201 198 199 196 197 193 191 193 193 191 191 190 191 191 190 192 191 190 191 188 185 186 185 181 176 178 182 183 174 174 170 168 173 177 177 172 169 165 164 166 172 177 191 200 217 225 248 244 228 248 238 229 240 257 278 301 307 307 301 306 307
311 296 291 288 283 281 276 264 254 247 245 243 238 233 229 223 219 214 202 208 207 203 200 201 201 199 201 199 199 194 193 193 193 192 192 191 190 193 191 190 189 188 186 186 185 185 183 180 179 182 182 180 175 169 168 171 168 175 178 173 170 166 165 167 174 183 191 200 206 220 231 245 242 224 229 218 247 272 299 327 318 322 316 309 301
329 318 299 282 275 271 273 270 263 258 250 246 241 234 228 224 221 214 209 212 209 207 202 198 196 200 201 199 197 195 197 198 195 192 191 192 193 193 192 191 188 185 182 183 182 180 180 180 180 180 177 174 173 170 174 170 166 172 180 176 174 167 167 171 178 177 185 195 217 232 239 240 240 269 302 337 345 329 319 310 303 306 309 307 293
339 337 339 337 327 307 280 271 267 264 261 252 244 237 230 224 218 216 216 214 213 207 201 200 201 201 199 200 198 197 202 203 195 191 188 189 190 191 189 191 189 186 182 179 179 181 180 176 175 175 175 173 174 176 178 181 183 177 171 175 173 169 173 171 175 180 185 197 214 226 235 222 257 308 321 322 320 304 309 319 318 317 312 302 288
337 338 336 337 334 330 321 298 280 270 263 258 255 246 235 226 219 219 217 210 209 206 201 204 207 204 201 198 199 203 206 204 194 193 193 188 184 186 185 187 187 187 186 182 181 177 176 160 152 174 173 174 176 179 181 183 185 185 182 180 178 172 169 174 182 183 187 198 209 218 234 251 278 301 315 322 307 321 327 327 320 320 326 327 323
331 331 330 331 334 334 331 324 308 288 277 266 258 250 244 235 227 218 214 210 208 201 207 210 207 204 204 202 204 205 206 200 196 196 194 190 184 183 184 183 184 187 187 186 182 174 170 151 160 162 171 172 170 178 183 185 185 185 184 185 188 187 185 177 180 185 190 193 198 207 226 244 261 289 294 302 314 324 320 318 314 314 311 312 310
326 326 329 333 332 333 331 329 321 310 292 276 271 263 250 241 235 224 218 213 200 207 213 205 209 207 204 206 209 206 209 197 196 195 193 191 186 180 186 184 184 189 186 185 178 175 168 147 154 165 168 174 172 176 176 183 185 186 187 190 195 197 198 197 196 189 190 192 195 215 221 232 246 231 196 290 308 310 313 307 305 302 311 308 303
326 323 327 331 330 328 328 326 322 316 309 296 279 265 249 240 235 227 224 208 210 215 213 212 212 208 210 212 212 209 209 198 196 194 193 190 187 181 185 183 187 188 186 183 179 176 164 151 154 160 166 175 174 175 175 179 181 186 194 199 202 207 208 210 212 214 212 197 195 198 204 173 224 247 259 284 294 292 295 294 332 325 309 294 300
325 326 329 330 330 328 327 325 319 316 313 306 292 270 255 253 243 228 216 214 213 214 211 213 213 211 211 210 212 212 210 196 197 194 193 190 189 180 180 181 182 184 182 183 182 157 154 152 156 160 164 171 176 177 175 178 181 186 191 194 195 199 205 211 213 207 204 159 162 191 214 213 226 243 253 258 263 279 320 351 330 308 303 302 291
321 325 330 330 331 329 328 325 322 318 316 312 300 280 265 251 248 236 225 229 228 226 226 219 215 212 210 206 209 212 203 195 196 194 192 190 186 178 179 180 181 179 179 164 134 147 148 155 149 157 160 164 177 180 179 169 173 179 185 191 195 203 210 211 209 209 199 200 201 213 222 210 219 242 261 275 296 15 5 344 341 330 326 305 292
323 325 325 326 326 325 323 320 316 314 313 310 298 285 274 261 252 236 232 230 224 221 222 216 214 211 207 205 206 208 198 195 195 193 192 189 182 174 174 176 178 176 180 176 166 160 162 163 163 159 158 165 178 182 181 177 172 180 183 192 197 202 208 206 213 212 209 215 220 218 227 245 265 275 281 291 319 339 24 341 296 346 329 309 298
323 324 321 322 321 320 318 316 314 310 309 304 294 286 276 268 254 217 223 229 228 228 220 222 217 210 208 207 204 202 200 195 194 193 190 189 178 168 170 174 178 176 175 176 168 161 164 175 174 156 160 169 180 183 182 179 174 180 182 189 194 201 204 196 202 216 222 222 219 231 247 255 266 282 1 324 305 319 343 271 272 24 290 264 285
322 321 318 315 314 315 316 316 313 309 304 297 290 282 273 261 253 222 224 226 232 227 215 220 219 212 212 208 202 203 199 196 197 195 192 190 178 168 170 176 175 179 173 171 171 150 171 183 178 172 169 176 182 182 183 178 172 182 184 187 197 203 199 186 191 167 144 108 61 242 258 209 85 68 334 331 309 305 281 256 263 220 259 265 271
318 312 309 311 314 314 314 314 311 308 302 296 291 274 267 266 248 231 233 221 223 212 216 217 215 216 204 202 205 203 196 196 200 197 194 193 182 168 173 176 183 177 172 170 168 173 172 177 182 181 180 181 184 184 185 180 174 181 187 194 199 200 187 183 174 150 176 172 208 184 168 176 168 132 142 215 257 243 250 239 224 206 225 253 257
314 310 310 317 316 314 312 310 307 303 294 288 285 280 262 248 244 235 231 230 218 211 207 212 212 214 200 206 205 206 198 193 203 198 199 199 188 170 179 185 180 175 177 175 179 176 166 174 157 184 183 184 185 187 188 186 181 184 192 195 195 185 154 157 182 192 168 149 142 155 164 137 311 328 298 262 252 240 241 256 244 249 249 253 266
310 308 314 314 311 310 311 308 302 295 292 286 280 269 261 245 237 233 230 221 220 222 211 200 201 203 202 205 208 209 199 196 200 204 204 203 192 177 177 190 178 171 172 179 171 136 155 154 157 187 188 186 186 188 189 192 191 173 191 196 200 198 180 161 130 117 136 137 142 155 178 197 227 183 213 233 245 245 245 244 252 254 252 250 253
304 310 312 309 307 307 305 304 300 296 287 277 265 265 255 236 234 223 222 222 223 224 215 206 191 194 195 206 207 205 202 201 202 206 207 205 198 187 181 177 178 175 176 178 180 166 150 154 171 186 189 187 186 188 189 192 192 174 192 204 197 196 169 126 137 135 129 147 150 208 237 225 251 255 256 243 259 258 255 256 259 263 265 262 266
315 313 307 305 305 303 304 302 300 293 283 274 259 256 248 228 225 216 213 212 217 218 217 206 200 195 195 201 202 202 202 200 209 208 210 209 202 192 188 180 179 178 181 183 166 153 152 159 173 185 188 185 185 187 188 191 184 183 192 193 194 167 118 139 124 140 131 142 190 215 223 213 185 224 235 247 253 282 286 288 283 278 275 275 271
315 307 305 303 301 301 301 299 296 295 284 267 259 252 243 223 224 218 209 215 213 217 216 201 208 209 202 202 197 197 194 198 203 209 211 211 208 194 190 181 181 177 177 170 118 161 163 171 180 185 185 182 184 187 188 186 187 193 188 189 153 97 131 127 143 121 168 200 208 205 206 205 206 227 255 292 297 296 294 291 291 285 283 278 273
307 302 300 297 295 298 298 294 290 286 281 263 251 247 242 227 222 217 206 215 214 217 216 209 213 212 212 204 199 194 193 195 205 209 216 216 216 202 192 186 184 183 167 162 165 168 172 177 181 186 187 188 184 175 162 181 184 173 167 138 108 136 127 135 130 161 199 195 187 201 205 195 214 247 307 311 303 293 298 291 292 283 281 281 283
300 297 292 293 296 295 293 292 291 291 282 271 252 248 239 231 225 223 211 210 212 216 217 213 214 214 216 209 198 183 179 196 199 202 206 211 215 206 192 193 184 174 163 163 168 171 173 173 179 183 184 176 161 141 141 153 150 132 101 112 123 131 145 150 168 175 181 178 186 189 184 183 116 3 331 318 283 281 285 285 281 279 282 279 279
299 296 292 293 292 292 291 289 286 286 285 273 261 252 238 227 228 224 215 209 209 214 213 215 215 212 216 207 185 161 177 197 201 198 197 198 204 202 185 178 177 167 162 161 160 164 166 173 178 177 163 151 129 107 110 104 122 125 118 104 120 120 153 164 159 168 178 174 155 147 96 84 349 271 273 269 271 280 281 275 273 279 275 282 286
296 291 289 290 282 286 284 281 284 284 283 281 263 251 246 234 230 237 228 217 211 212 209 220 219 218 213 204 180 173 166 200 208 198 196 194 193 191 179 180 172 164 163 155 148 151 157 165 156 145 141 139 139 145 148 136 117 126 118 119 127 149 145 155 172 177 166 132 158 155 176 136 236 246 251 277 270 273 275 272 271 270 278 268 269
291 287 284 283 284 284 281 279 273 276 278 279 280 271 246 240 235 231 243 221 224 225 220 222 218 208 214 213 192 195 201 208 186 191 199 199 200 196 184 178 170 159 163 160 151 154 163 158 157 159 161 161 162 164 167 165 144 124 150 159 150 149 164 169 173 165 162 162 165 156 167 167 236 235 248 259 279 264 264 268 274 272 281 283 280
283 283 287 284 285 290 285 282 278 272 266 267 268 272 277 253 243 243 241 238 226 228 230 234 230 215 208 212 208 213 210 181 193 196 197 202 204 200 183 180 168 164 163 153 153 160 165 167 167 165 168 169 173 172 167 160 149 139 159 159 157 168 168 169 174 163 162 156 162 162 178 184 221 238 254 266 266 276 265 255 256 271 269 276 279
278 277 279 280 285 281 278 277 277 271 274 273 271 270 265 267 260 240 243 244 240 236 234 233 232 228 221 213 191 204 213 206 195 196 198 198 202 200 187 180 170 168 169 157 155 170 171 167 167 172 171 175 179 173 170 153 161 164 157 157 167 173 165 173 169 152 158 152 161 168 174 197 212 234 246 262 269 268 267 270 267 270 275 269 268
271 272 273 277 276 274 274 281 288 293 288 281 271 263 259 255 257 265 240 240 240 236 234 232 230 229 224 220 209 196 196 201 200 199 199 201 201 200 188 180 172 172 165 162 171 167 174 172 171 173 174 180 174 167 165 168 162 157 163 156 158 171 167 167 156 145 149 155 154 184 195 201 209 246 258 265 268 272 272 274 273 268 270 277 279
268 266 266 267 276 282 283 280 278 276 273 270 265 261 256 249 249 249 251 233 239 241 238 234 232 230 228 223 216 208 203 198 200 200 200 201 201 200 189 180 175 175 169 169 165 167 165 171 174 172 173 171 166 160 164 160 145 141 146 148 142 150 153 153 145 151 145 169 162 162 217 235 240 240 258 255 262 270 276 273 272 274 272 273 281
273 274 279 285 287 283 282 280 276 271 268 265 263 259 251 244 238 239 234 233 228 224 220 227 229 228 227 224 220 211 204 201 199 199 199 201 200 199 184 172 176 179 173 170 168 166 171 173 170 169 168 165 167 166 159 135 154 158 159 156 152 148 149 147 145 147 152 152 161 180 197 220 232 232 240 270 280 282 275 272 267 264 275 284 287
269 267 270 272 273 272 273 275 274 272 275 284 284 275 257 245 235 231 231 230 230 227 232 220 217 222 224 222 218 213 206 203 200 198 198 199 198 194 182 180 178 179 169 165 163 165 164 167 164 166 162 155 142 155 154 152 159 155 154 148 154 153 151 148 152 147 155 159 174 202 210 208 220 243 266 269 262 264 268 268 273 272 276 277 279
267 267 265 265 262 264 266 266 267 270 269 269 275 282 273 249 235 232 228 229 227 227 225 215 201 216 226 223 215 213 207 203 202 201 200 199 198 195 184 182 178 163 156 164 163 157 162 159 155 153 158 157 155 151 135 150 147 145 156 152 157 155 157 154 156 148 155 170 180 176 194 231 252 248 242 258 268 268 270 274 273 278 285 289 293
265 267 265 262 255 257 256 255 258 263 275 287 280 275 276 268 248 230 225 223 225 222 217 207 203 200 203 211 202 204 205 203 203 205 204 201 200 192 183 178 166 162 166 159 159 155 154 150 151 156 152 146 143 143 141 139 150 149 141 147 149 160 163 157 156 139 135 126 154 198 220 236 236 239 247 255 265 272 272 273 279 284 285 277 277
264 269 272 272 271 269 271 276 279 279 273 270 275 278 276 272 254 240 230 227 224 219 215 207 204 202 204 192 181 184 190 192 199 202 199 197 198 191 175 165 152 152 150 149 144 146 144 146 143 143 134 140 145 139 138 134 135 144 144 145 149 165 144 127 137 139 150 179 197 199 210 238 242 243 244 252 262 266 271 274 278 284 288 290 291
273 276 275 275 274 270 268 265 264 261 260 256 254 253 256 253 245 236 228 223 221 217 211 207 206 203 196 177 179 178 183 195 198 199 197 195 190 172 154 144 140 136 132 134 139 141 141 133 134 137 135 134 139 130 136 134 143 147 147 152 153 159 165 159 154 162 181 188 195 208 215 237 249 249 254 252 257 261 267 278 284 286 284 288 295
269 269 271 271 267 267 264 263 257 253 253 250 246 245 246 244 237 228 223 222 219 218 212 211 207 199 186 187 185 181 182 189 192 194 193 172 133 135 138 134 132 133 139 143 145 143 137 138 132 136 121 129 128 134 131 141 140 146 147 159 149 143 154 163 169 175 182 187 204 215 230 233 247 250 259 263 270 277 281 285 283 278 278 290 292
267 268 269 267 266 265 265 266 267 271 271 267 263 259 252 237 228 223 220 218 215 213 210 210 204 193 194 190 189 186 184 185 167 134 112 124 128 126 127 128 129 134 140 138 130 130 120 107 117 120 130 135 135 132 131 139 151 146 156 156 161 157 165 177 185 184 182 192 207 220 230 239 245 249 264 277 283 279 281 280 277 277 289 292 291
268 263 262 259 258 254 255 256 256 257 256 256 247 239 235 230 222 220 218 215 213 206 203 194 188 177 183 191 188 190 154 127 124 135 124 123 119 115 113 116 117 115 122 124 131 128 116 124 119 123 121 142 149 147 158 160 159 161 163 160 160 168 172 175 178 190 191 201 214 228 232 244 265 268 269 268 267 273 276 282 278 283 290 292 294
261 257 251 251 252 251 250 247 249 248 249 256 264 255 227 222 217 212 210 208 206 198 192 182 168 171 176 188 185 151 96 119 104 115 113 111 112 114 114 110 115 109 109 107 101 116 112 107 115 111 117 127 147 154 155 162 162 159 160 158 157 169 177 187 191 195 191 196 215 227 248 257 264 267 267 270 269 279 284 279 281 292 297 297 296
264 258 247 248 245 245 249 248 250 251 250 251 246 240 222 212 207 203 198 195 181 170 170 163 156 125 93 85 101 116 110 104 109 104 112 114 118 115 121 119 116 116 112 109 115 114 104 125 120 115 129 131 137 125 131 149 161 158 159 160 162 178 190 198 200 188 177 188 211 236 255 259 265 262 268 266 275 279 277 277 284 298 299 296 297
268 254 236 239 240 241 245 243 243 247 252 248 235 212 194 197 186 182 172 154 147 142 117 86 90 104 109 105 102 105 115 109 105 105 103 109 115 117 112 101 78 96 84 99 103 110 116 111 127 127 132 134 140 135 152 156 161 164 164 171 180 192 192 181 162 166 185 194 212 226 255 257 267 263 266 273 277 276 270 278 288 291 290 294 293
292 284 277 247 250 248 252 250 252 248 238 221 183 168 150 137 113 107 99 99 95 91 97 104 99 98 101 103 104 105 110 113 112 114 114 114 109 103 102 101 103 93 87 76 81 81 95 103 106 113 121 130 135 151 161 168 161 169 174 188 198 215 210 205 201 208 206 202 209 222 244 247 263 269 274 272 274 269 270 285 292 295 291 291 292
312 315 316 324 331 345 356 17 54 53 64 55 61 61 70 72 82 80 86 85 89 93 91 87 87 91 95 94 96 101 101 103 106 109 114 116 101 107 107 99 89 98 94 89 89 93 97 101 105 105 115 136 142 153 154 162 161 176 192 206 209 215 217 210 204 216 214 217 218 230 232 245 257 261 267 266 267 274 291 295 294 290 288 290 295
336 343 348 355 7 12 19 24 38 47 61 70 73 69 68 72 72 75 77 81 81 83 90 96 95 94 91 96 100 99 101 104 114 113 109 105 98 99 87 88 87 91 96 98 100 101 102 97 104 100 119 142 144 144 149 154 188 194 214 213 225 228 227 223 217 220 219 221 227 232 242 244 250 253 258 263 271 281 286 286 288 288 288 291 293
356 355 3 5 15 16 22 35 38 45 47 62 72 76 70 76 72 77 79 81 81 81 82 87 92 97 106 107 108 109 110 113 112 104 107 101 97 90 84 84 85 89 84 78 92 96 104 92 106 100 108 96 108 113 154 177 201 213 219 222 234 239 240 238 236 239 237 235 234 242 243 253 259 268 270 267 274 282 285 286 286 286 288 295 297
2 5 11 15 16 17 24 32 36 38 42 54 60 70 74 75 78 77 80 80 86 86 88 89 96 91 93 98 106 112 111 109 101 98 101 97 96 97 92 95 93 91 98 97 96 97 105 101 112 114 116 122 137 158 191 203 214 216 232 236 241 243 243 240 239 241 241 243 246 251 255 263 271 271 268 274 281 281 283 287 288 287 291 293 296